Miscellaneous Local Product
Issued by NWS Hastings, NE

Home | Current Version | Previous Version | Text Only | Print | Product List | Glossary Off
Versions: 1 2 3 4 5 6 7 8 9 10 11 12 13 14 15 16 17 18 19 20 21 22 23 24 25 26 27 28 29 30 31 32 33 34 35 36 37 38 39 40 41 42 43 44 45 46 47 48 49 50

000
AXUS43 KGID 230902
MISGRI

GID CWA HOURLY WEATHER ROUNDUP
NATIONAL WEATHER SERVICE HASTINGS NE
300 AM CST SUN NOV 23 2014

NOTE: "FAIR" INDICATES FEW OR NO CLOUDS BELOW 12,000 FEET WITH NO
SIGNIFICANT WEATHER AND/OR OBSTRUCTIONS TO VISIBILITY.

...SOUTH CENTRAL NEBRASKA...

CITY           SKY/WX    TMP DP  RH WIND       PRES   REMARKS
GRAND ISLAND   MOCLDY    49  47  93 S8        29.45F
HASTINGS       CLOUDY    51  47  86 S7        29.45F
KEARNEY        CLOUDY    45  43  93 SE8       29.46F
ORD            MOCLDY    36  32  85 CALM      29.42F
YORK           CLOUDY    52  50  93 S8        29.48F
AURORA         MOCLDY    52  50  93 S7        29.46F
LEXINGTON      CLOUDY    38  32  79 CALM      29.45S
HOLDREGE       CLOUDY    44  43  95 CALM      29.45F FOG
HEBRON         CLOUDY    54  49  83 S5        29.48F

...NEBRASKA PANHANDLE...

CITY           SKY/WX    TMP DP  RH WIND       PRES   REMARKS
CHADRON        CLOUDY    37  28  70 W14       29.64R WCI  28
ALLIANCE       CLOUDY    39  23  52 NW17      29.61R WCI  30
SCOTTSBLUFF    CLOUDY    37  27  67 NW14      29.65R WCI  28
SIDNEY         CLOUDY    39  27  62 N20G26    29.63R WCI  29

...WESTERN AND NORTH CENTRAL NEBRASKA...

CITY           SKY/WX    TMP DP  RH WIND       PRES   REMARKS
VALENTINE      PTCLDY    40  34  79 NW18G29   29.51R WCI  31
AINSWORTH      PTCLDY    43  34  69 NW20G28   29.48R
ONEILL         CLOUDY    45  36  70 SW7       29.42R
BROKEN BOW     MOCLDY    52  32  46 NW15      29.42F
IMPERIAL       CLOUDY    49  25  39 NW18G26   29.56R
NORTH PLATTE   MOCLDY    33  25  72 NW8       29.50R WCI  26
MCCOOK         CLOUDY    43  32  65 W7        29.46R

...EASTERN NEBRASKA...

CITY           SKY/WX    TMP DP  RH WIND       PRES   REMARKS
NORFOLK        CLOUDY    51  49  92 S12       29.43F FOG
SO SIOUX CITY  CLOUDY    51  49  92 E8        29.46F
TEKAMAH        CLOUDY    54  50  86 S9        29.49F
COLUMBUS       MOCLDY    52  48  87 S9        29.48S
ALBION         FOG       45  43  91 S3        29.44S VSB 1/2
OMAHA EPPLEY   CLOUDY    53  52  96 S13       29.51F
OFFUTT AFB     CLOUDY    54  51  90 S8        29.51F
MILLARD        CLOUDY    55  52  90 SE9       29.51S
LINCOLN        CLOUDY    55  50  83 S12       29.51R
NEBRASKA CITY  CLOUDY    54  51  92 S15       29.53F
BEATRICE       CLOUDY    55  50  83 S8        29.51F
FALLS CITY     CLOUDY    53  52  96 SE8       29.55F FOG

...NORTHERN KANSAS...

CITY           SKY/WX    TMP DP  RH WIND       PRES   REMARKS
GOODLAND       CLOUDY    41  22  46 N10       29.48R
HILL CITY      CLOUDY    50  47  89 CALM      29.45F
NORTON         CLOUDY    48  43  81 CALM      29.44S
PHILLIPSBURG   MOCLDY    54  48  82 SE5       29.45F
SMITH CENTER   MOCLDY    50  46  87 SE5       29.47F
BELOIT         CLOUDY    54  48  82 S15       29.47F
HAYS           CLOUDY    52  43  71 S10       29.46F
RUSSELL        CLOUDY    53  48  83 S16       29.44F
CONCORDIA      CLOUDY    54  50  86 S7        29.49F
SALINA         CLOUDY    55  50  83 S15G25    29.49F
TOPEKA         CLOUDY    55  54  96 SE9       29.59F FOG



USA.gov is the U.S. government's official web portal to all federal, state and local government web resources and services.